{"data":{"norad_id":60332,"epoch":"2026-05-25T01:55:57.968256Z","epoch_age_seconds":68367,"freshness":"FRESH","line1":"1 60332U 24136D   26145.08053204  .00000134  00000+0  16660-4 0  9990","line2":"2 60332  53.1600  80.6149 0001648  91.4289 268.6901 15.30189657101369","mean_motion":15.30189657,"eccentricity":0.0001648,"inclination_deg":53.16,"raan_deg":80.6149,"arg_perigee_deg":91.4289,"mean_anomaly_deg":268.6901,"bstar":1.666e-5,"rev_number":10136,"period_min":94.105981792034,"perigee_km":474.11651441646,"apogee_km":476.37538943742,"semimajor_km":6853.3829519269,"source":"CELESTRAK","updated_at":"2026-05-25T13:38:19.233286Z"}}